Location: Worth Mountain WMA
(34.9569°N, 81.4819°W)
Time: 20:56:37
(UTC-04:00)

Amateur Radio Satellites - All Passes

Search period start: 29 July 2014 20:26
Search period end: 30 July 2014 20:26
Location: Worth Mountain WMA, 34.9569°N, 81.4819°W

Satellite Date Start Highest point End Downlink Frequencies (MHz)
Time Altitude Azimuth
JAS-2 29 Jul 20:42:33 20:47:14 17° 269° (W) 20:51:48 435.800 - 435.900 CW/SSB, 435.910 FM
MaSat-1 29 Jul 20:50:17 20:53:15 21° 102° (ESE) 20:56:34 437.345 MHz
STRAND 1 29 Jul 21:16:56 21:20:56 24° 292° (WNW) 21:24:56 ?
HO-68 29 Jul 21:21:32 21:28:33 61° 71° (ENE) 21:35:35 435.675 MHz FM
Oscar 11 29 Jul 21:22:14 21:24:24 14° 67° (ENE) 21:26:35 145.825 FM, Beacon 2401.500 USB
SO-50 29 Jul 21:25:34 21:29:39 28° 53° (NE) 21:33:46 436.795 FM
RS-15 29 Jul 22:01:52 22:11:50 37° 47° (NE) 22:22:03 29.354 - 29.394 USB, Beacon 29.352 USB
UKube-1 29 Jul 22:11:28 22:15:49 70° 258° (WSW) 22:20:11 145.840 MHz, 145.915 MHz
MaSat-1 29 Jul 22:26:48 22:30:18 28° 302° (WNW) 22:34:17 437.345 MHz
Oscar 11 29 Jul 22:56:05 23:00:11 43° 261° (W) 23:04:18 145.825 FM, Beacon 2401.500 USB
SO-50 29 Jul 23:06:00 23:10:11 30° 248° (WSW) 23:14:23 436.795 FM
HO-68 29 Jul 23:11:24 23:16:36 21° 266° (W) 23:21:50 435.675 MHz FM
FUNcube-1 29 Jul 23:19:40 23:24:00 70° 259° (WSW) 23:28:15 145.950 - 145.970 MHz USB
UOSAT-12 29 Jul 23:22:00 23:26:07 29° 53° (NE) 23:30:10 437.025 FM, 437.400 FM
ISS 29 Jul 23:39:40 23:42:58 73° 318° (NW) 23:46:19 145.800 FM
Sapphire 30 Jul 00:13:08 00:17:27 25° 107° (ESE) 00:21:47 437.095 MHz 1200 baud AX-25 AFSK
RS-15 30 Jul 00:13:52 00:24:44 63° 248° (WSW) 00:36:03 29.354 - 29.394 USB, Beacon 29.352 USB
PCSat 30 Jul 00:45:18 00:50:33 56° 112° (ESE) 00:55:51 145.825 MHz
UOSAT-12 30 Jul 01:02:11 01:06:10 28° 249° (WSW) 01:10:06 437.025 FM, 437.400 FM
ISS 30 Jul 01:19:02 01:20:12 11° 335° (NNW) 01:21:21 145.800 FM
Sapphire 30 Jul 01:55:38 02:00:37 38° 302° (WNW) 02:05:39 437.095 MHz 1200 baud AX-25 AFSK
AO-40 30 Jul 02:06:44 03:59:14 32° 215° (SW) 08:17:28 Beacon 2401.320
Oscar 19 30 Jul 02:20:58 02:25:31 31° 97° (E) 02:30:03 437.125 CW, 437.150 USB
PCSat 30 Jul 02:30:31 02:34:19 19° 309° (NW) 02:38:08 145.825 MHz
AO-Echo 30 Jul 02:30:48 02:33:52 16° 92° (E) 02:36:51 ?
Oscar 16 30 Jul 02:49:05 02:54:13 63° 101° (ESE) 02:59:20 437.025 USB, Beacon 2401.1428
Oscar 10/S400 30 Jul 03:01:17 03:54:04 68° 202° (SSW) 13:11:51 145.825 - 145.975 CW/USB, Beacon 145.810 USB
ITAMSAT 1 30 Jul 03:12:16 03:17:12 43° 99° (E) 03:22:05 435.822 SSB
Uribyol 2 30 Jul 03:31:16 03:36:26 74° 102° (ESE) 03:41:34 436.500 FM
AO-27 30 Jul 03:31:36 03:36:46 71° 102° (ESE) 03:41:55 436.795 MHz FM
TMSAT-1 30 Jul 03:35:50 03:39:47 21° 94° (E) 03:43:42 436.925 FM
PANSAT 30 Jul 03:46:22 03:47:52 12° 159° (SSE) 03:49:22 not established
JAS-1B 30 Jul 03:47:48 03:56:51 61° 99° (E) 04:04:26 435.800 - 435.900 CW/SSB
Gurwin Techsat 1B 30 Jul 03:59:57 04:05:08 52° 100° (E) 04:10:17 435.225 FM
Oscar 19 30 Jul 04:00:25 04:04:42 27° 291° (WNW) 04:09:00 437.125 CW, 437.150 USB
AO-Echo 30 Jul 04:08:05 04:12:52 45° 288° (WNW) 04:17:29 ?
OPAL 30 Jul 04:24:49 04:29:40 60° 72° (ENE) 04:34:32 ?
Uosat F 30 Jul 04:29:18 04:31:35 13° 92° (E) 04:33:52 435.120 FM
Oscar 16 30 Jul 04:30:26 04:32:59 14° 296° (WNW) 04:35:33 437.025 USB, Beacon 2401.1428
ITAMSAT 1 30 Jul 04:52:42 04:56:20 20° 294° (WNW) 04:59:56 435.822 SSB
Uribyol 2 30 Jul 05:13:25 05:15:14 12° 298° (WNW) 05:17:03 436.500 FM
AO-27 30 Jul 05:13:33 05:15:38 12° 297° (WNW) 05:17:42 436.795 MHz FM
TMSAT-1 30 Jul 05:14:53 05:19:48 40° 289° (WNW) 05:24:41 436.925 FM
PANSAT 30 Jul 05:24:15 05:27:30 26° 170° (S) 05:30:45 not established
JAS-1B 30 Jul 05:39:06 05:46:32 29° 300° (WNW) 05:53:10 435.800 - 435.900 CW/SSB
AO-7 30 Jul 05:39:30 05:47:46 63° 104° (ESE) 05:55:56 29.400 - 29.500 MHz
KITSAT 1 30 Jul 05:40:46 05:47:54 36° 107° (ESE) 05:55:02 435.175 FM
Gurwin Techsat 1B 30 Jul 05:41:17 05:44:38 17° 295° (WNW) 05:47:59 435.225 FM
Uosat F 30 Jul 06:05:46 06:10:42 58° 287° (WNW) 06:15:34 435.120 FM
OPAL 30 Jul 06:06:53 06:08:53 12° 266° (W) 06:10:54 ?
ISS 30 Jul 06:11:17 06:14:17 29° 35° (NE) 06:17:16 145.800 FM
Saudisat 1A 30 Jul 06:39:37 06:41:55 14° 108° (ESE) 06:44:13 436.775 MHz
MaSat-1 30 Jul 06:47:44 06:52:29 33° 60° (ENE) 06:56:57 437.345 MHz
STRAND 1 30 Jul 06:50:05 06:54:45 36° 70° (ENE) 06:59:25 ?
PANSAT 30 Jul 07:03:52 07:07:18 30° 183° (S) 07:10:43 not established
AO-7 30 Jul 07:33:21 07:39:54 27° 301° (WNW) 07:46:26 29.400 - 29.500 MHz
KITSAT 1 30 Jul 07:35:20 07:43:02 46° 304° (NW) 07:50:47 435.175 FM
Hamsat 30 Jul 07:42:26 07:46:42 60° 284° (WNW) 07:50:57 145.90 MHz
ISS 30 Jul 07:48:10 07:50:53 23° 230° (SW) 07:53:36 145.800 FM
JAS-2 30 Jul 07:53:42 07:59:30 83° 284° (WNW) 08:04:46 435.800 - 435.900 CW/SSB, 435.910 FM
Saudisat 1A 30 Jul 08:16:48 08:21:03 48° 303° (WNW) 08:25:21 436.775 MHz
MaSat-1 30 Jul 08:25:20 08:29:38 27° 257° (WSW) 08:33:40 437.345 MHz
STRAND 1 30 Jul 08:30:00 08:33:58 22° 265° (W) 08:37:58 ?
PANSAT 30 Jul 08:44:17 08:47:02 19° 196° (SSW) 08:49:46 not established
SO-67 30 Jul 08:52:48 08:56:10 48° 284° (WNW) 08:59:31 435.3500 MHz FM
HO-68 30 Jul 08:56:37 08:58:52 12° 90° (E) 09:01:06 435.675 MHz FM
Sapphire 30 Jul 09:05:35 09:07:36 12° 46° (NE) 09:09:36 437.095 MHz 1200 baud AX-25 AFSK
PCSat 30 Jul 09:37:08 09:41:26 24° 53° (NE) 09:45:44 145.825 MHz
KITSAT 1 30 Jul 09:39:06 09:40:45 11° 328° (NNW) 09:42:24 435.175 FM
UKube-1 30 Jul 10:03:40 10:07:15 25° 97° (E) 10:10:49 145.840 MHz, 145.915 MHz
HO-68 30 Jul 10:40:11 10:47:22 86° 105° (ESE) 10:54:31 435.675 MHz FM
Sapphire 30 Jul 10:46:21 10:51:48 85° 64° (ENE) 10:57:13 437.095 MHz 1200 baud AX-25 AFSK
Oscar 11 30 Jul 10:46:54 10:51:00 41° 99° (E) 10:55:06 145.825 FM, Beacon 2401.500 USB
FUNcube-1 30 Jul 11:12:28 11:16:03 27° 97° (E) 11:19:39 145.950 - 145.970 MHz USB
PCSat 30 Jul 11:19:54 11:25:00 43° 250° (WSW) 11:30:05 145.825 MHz
SO-50 30 Jul 11:38:51 11:41:41 17° 109° (ESE) 11:44:33 436.795 FM
UKube-1 30 Jul 11:39:52 11:43:20 24° 291° (WNW) 11:46:47 145.840 MHz, 145.915 MHz
RS-15 30 Jul 12:23:11 12:32:04 28° 104° (ESE) 12:40:44 29.354 - 29.394 USB, Beacon 29.352 USB
Oscar 11 30 Jul 12:24:22 12:26:49 15° 293° (WNW) 12:29:15 145.825 FM, Beacon 2401.500 USB
HO-68 30 Jul 12:30:06 12:34:08 16° 302° (WNW) 12:38:10 435.675 MHz FM
FUNcube-1 30 Jul 12:49:12 12:52:17 20° 290° (WNW) 12:55:23 145.950 - 145.970 MHz USB
SO-50 30 Jul 13:17:39 13:21:51 41° 304° (NW) 13:26:09 436.795 FM
UOSAT-12 30 Jul 13:31:18 13:34:16 17° 109° (ESE) 13:37:17 437.025 FM, 437.400 FM
Oscar 19 30 Jul 13:34:49 13:39:18 32° 70° (ENE) 13:43:47 437.125 CW, 437.150 USB
KITSAT 1 30 Jul 13:39:32 13:42:05 12° 33° (NNE) 13:44:38 435.175 FM
AO-Echo 30 Jul 13:40:24 13:43:49 18° 65° (ENE) 13:47:15 ?
Oscar 16 30 Jul 14:02:48 14:07:51 65° 74° (ENE) 14:12:55 437.025 USB, Beacon 2401.1428
JAS-1B 30 Jul 14:26:11 14:34:21 42° 65° (ENE) 14:43:18 435.800 - 435.900 CW/SSB
ITAMSAT 1 30 Jul 14:27:00 14:31:59 48° 72° (ENE) 14:36:58 435.822 SSB
RS-15 30 Jul 14:32:20 14:43:28 69° 302° (WNW) 14:54:22 29.354 - 29.394 USB, Beacon 29.352 USB
Uribyol 2 30 Jul 14:45:48 14:51:00 79° 75° (ENE) 14:56:12 436.500 FM
AO-27 30 Jul 14:46:22 14:51:35 77° 75° (ENE) 14:56:49 436.795 MHz FM
AO-7 30 Jul 14:48:56 14:51:33 12° 50° (NE) 14:54:11 29.400 - 29.500 MHz
TMSAT-1 30 Jul 14:53:30 14:57:42 25° 68° (ENE) 15:01:55 436.925 FM
UOSAT-12 30 Jul 15:09:41 15:14:02 43° 304° (NW) 15:18:30 437.025 FM, 437.400 FM
Oscar 19 30 Jul 15:14:27 15:18:36 25° 264° (W) 15:22:47 437.125 CW, 437.150 USB
AO-Echo 30 Jul 15:16:57 15:22:06 53° 260° (W) 15:27:18 ?
Gurwin Techsat 1B 30 Jul 15:17:44 15:22:56 60° 74° (ENE) 15:28:10 435.225 FM
KITSAT 1 30 Jul 15:31:49 15:39:38 51° 57° (ENE) 15:47:24 435.175 FM
Uosat F 30 Jul 15:39:46 15:42:21 14° 64° (ENE) 15:44:56 435.120 FM
Oscar 16 30 Jul 15:45:48 15:47:35 12° 269° (W) 15:49:23 437.025 USB, Beacon 2401.1428
ITAMSAT 1 30 Jul 16:08:19 16:11:40 17° 266° (W) 16:15:02 435.822 SSB
JAS-1B 30 Jul 16:16:16 16:24:32 47° 264° (W) 16:33:49 435.800 - 435.900 CW/SSB
TMSAT-1 30 Jul 16:32:35 16:37:24 35° 262° (W) 16:42:14 436.925 FM
AO-7 30 Jul 16:34:29 16:42:41 64° 69° (ENE) 16:50:55 29.400 - 29.500 MHz
OPAL 30 Jul 16:38:39 16:42:29 21° 97° (E) 16:46:20 ?
Saudisat 1A 30 Jul 16:46:32 16:50:49 50° 58° (ENE) 16:55:04 436.775 MHz
RS-15 30 Jul 16:50:50 16:58:16 20° 328° (NNW) 17:05:43 29.354 - 29.394 USB, Beacon 29.352 USB
Gurwin Techsat 1B 30 Jul 17:00:34 17:03:14 14° 268° (W) 17:05:55 435.225 FM
Uosat F 30 Jul 17:15:38 17:20:36 60° 259° (WSW) 17:25:35 435.120 FM
KITSAT 1 30 Jul 17:27:47 17:34:39 32° 254° (WSW) 17:41:30 435.175 FM
JAS-2 30 Jul 18:00:20 18:07:10 35° 68° (ENE) 18:13:37 435.800 - 435.900 CW/SSB, 435.910 FM
OPAL 30 Jul 18:16:43 18:21:25 39° 291° (WNW) 18:26:10 ?
Saudisat 1A 30 Jul 18:27:51 18:29:56 13° 252° (WSW) 18:32:01 436.775 MHz
AO-7 30 Jul 18:29:25 18:35:52 25° 264° (W) 18:42:23 29.400 - 29.500 MHz
Hamsat 30 Jul 18:32:24 18:36:30 61° 76° (ENE) 18:40:39 145.90 MHz
STRAND 1 30 Jul 19:05:17 19:08:16 16° 93° (E) 19:11:14 ?
RS-15 30 Jul 19:14:12 19:17:18 11° 7° (N) 19:20:25 29.354 - 29.394 USB, Beacon 29.352 USB
SO-67 30 Jul 19:22:56 19:25:56 28° 73° (ENE) 19:28:57 435.3500 MHz FM
JAS-2 30 Jul 19:44:33 19:51:55 44° 262° (W) 19:58:57 435.800 - 435.900 CW/SSB, 435.910 FM
